Location: Almansa
(38.8670°N, 1.0830°W)
Time: 09:35:35
(UTC+01:00)

ISS - Visible Passes

Search period start: 03 March 2024 00:00
Search period end: 13 March 2024 00:00
Orbit: 414 x 422 km, 51.6° (Epoch: 03 March)

Date Brightness Start Highest point End Pass type
(mag) Time Alt. Az. Time Alt. Az. Time Alt. Az.
03 Mar -0.8 05:22:45 12° NNE 05:22:45 12° NNE 05:23:55 10° NE visible
03 Mar -2.4 06:56:58 10° NW 07:00:09 36° NNE 07:03:18 10° ESE visible
04 Mar -1.7 06:09:42 13° NNW 06:12:02 25° NNE 06:14:53 10° E visible
05 Mar -1.3 05:23:46 18° NNE 05:23:50 18° NNE 05:26:16 10° ENE visible
05 Mar -3.8 06:57:35 10° NW 07:00:57 79° SW 07:04:19 10° SE visible
06 Mar -3.3 06:10:52 21° NW 06:12:54 58° NE 06:16:14 10° ESE visible
07 Mar -2.2 05:25:08 34° NE 05:25:08 34° NE 05:27:54 10° E visible
07 Mar -2.4 06:58:37 10° WNW 07:01:25 24° SW 07:04:13 10° S visible
08 Mar -3.4 06:12:29 34° W 06:13:26 44° SW 06:16:39 10° SSE visible
09 Mar -2.0 05:27:02 27° SE 05:27:02 27° SE 05:28:42 10° SE visible
10 Mar -1.5 06:14:44 13° SSW 06:14:44 13° SSW 06:15:33 10° SSW visible
11 Mar -1.6 20:28:21 10° S 20:29:08 14° SSE 20:29:08 14° SSE visible
12 Mar -1.6 19:41:51 10° SE 19:42:48 11° SE 19:43:45 10° ESE visible
12 Mar -1.4 21:15:47 10° WSW 21:16:59 21° WSW 21:16:59 21° WSW visible
